When you browse on this site, cookies collect data to enhance your experience and personalize the content and advertising you see.
Visit our Privacy Policy to learn more. By continuing to use the site, you agree to this use of cookies and data.
  • In Netherlands
  • List of Countries
  • For 7 days
  • Water Temperature
  • Satellite Maps
  • Weather Map
  • Weather Widgets
  • user-avatar
    Login

    Hourly Weather Dhaka

    Today, 25 March, Monday

    Time Temperature Precipitation Wind Pressure Humidity
    00:00 +27°C° 0 mm 1 mps 756 mmHg 34%
    01:00 +26°C° 0 mm 2 mps 756 mmHg 35%
    02:00 +26°C° 0 mm 2 mps 756 mmHg 37%
    03:00 +25°C° 0 mm 2 mps 756 mmHg 38%
    04:00 +25°C° 0 mm 2 mps 756 mmHg 39%
    05:00 +24°C° 0 mm 2 mps 756 mmHg 40%
    06:00 +24°C° 0 mm 2 mps 757 mmHg 41%
    07:00 +26°C° 0 mm 2 mps 757 mmHg 37%
    08:00 +29°C° 0 mm 2 mps 757 mmHg 34%
    09:00 +31°C° 0 mm 3 mps 758 mmHg 30%
    10:00 +34°C° 0 mm 2 mps 757 mmHg 26%
    11:00 +35°C° 0 mm 2 mps 757 mmHg 21%
    12:00 +37°C° 0 mm 2 mps 757 mmHg 17%
    13:00 +37°C° 0 mm 1 mps 756 mmHg 16%
    14:00 +37°C° 0 mm 1 mps 755 mmHg 15%
    15:00 +39°C° 0 mm 1 mps 755 mmHg 14%
    16:00 +37°C° 0 mm 1 mps 754 mmHg 16%
    17:00 +35°C° 0 mm 1 mps 754 mmHg 18%
    18:00 +34°C° 0 mm 1 mps 754 mmHg 20%
    19:00 +33°C° 0 mm 1 mps 754 mmHg 21%
    20:00 +32°C° 0 mm 2 mps 755 mmHg 23%
    21:00 +31°C° 0 mm 2 mps 755 mmHg 24%
    22:00 +30°C° 0 mm 2 mps 755 mmHg 28%
    23:00 +29°C° 0 mm 3 mps 756 mmHg 33%

    Tomorrow, 26 March, Tuesday

    Time Temperature Precipitation Wind Pressure Humidity
    00:00 +28°C° 0 mm 3 mps 756 mmHg 38%
    01:00 +28°C° 0 mm 3 mps 755 mmHg 39%
    02:00 +27°C° 0 mm 2 mps 755 mmHg 40%
    03:00 +26°C° 0 mm 2 mps 755 mmHg 42%
    04:00 +26°C° 0 mm 2 mps 755 mmHg 43%
    05:00 +26°C° 0 mm 2 mps 755 mmHg 44%
    06:00 +25°C° 0 mm 2 mps 755 mmHg 46%
    07:00 +27°C° 0 mm 2 mps 756 mmHg 42%
    08:00 +30°C° 0 mm 2 mps 757 mmHg 38%
    09:00 +32°C° 0 mm 2 mps 757 mmHg 34%
    10:00 +35°C° 0 mm 2 mps 757 mmHg 30%
    11:00 +37°C° 0 mm 3 mps 757 mmHg 25%
    12:00 +39°C° 0 mm 3 mps 757 mmHg 21%
    13:00 +39°C° 0 mm 3 mps 756 mmHg 19%
    14:00 +40°C° 0 mm 3 mps 755 mmHg 18%
    15:00 +42°C° 0 mm 3 mps 755 mmHg 16%
    16:00 +39°C° 0 mm 2 mps 754 mmHg 19%
    17:00 +38°C° 0 mm 2 mps 754 mmHg 21%
    18:00 +36°C° 0 mm 1 mps 754 mmHg 23%
    19:00 +34°C° 0 mm 1 mps 755 mmHg 26%
    20:00 +32°C° 0 mm 2 mps 756 mmHg 30%
    21:00 +31°C° 0 mm 2 mps 757 mmHg 33%
    22:00 +30°C° 0.2 mm 2 mps 757 mmHg 36%
    23:00 +29°C° 0.2 mm 2 mps 757 mmHg 40%

    Day after tomorrow, 27 March, Wednesday

    Time Temperature Precipitation Wind Pressure Humidity
    00:00 +29°C° 0.2 mm 2 mps 757 mmHg 43%
    01:00 +28°C° 0.5 mm 2 mps 757 mmHg 45%
    02:00 +28°C° 0.5 mm 3 mps 756 mmHg 46%
    03:00 +28°C° 0.5 mm 3 mps 756 mmHg 47%
    04:00 +27°C° 0.5 mm 3 mps 756 mmHg 52%
    05:00 +26°C° 0.5 mm 3 mps 757 mmHg 57%
    06:00 +25°C° 0.5 mm 2 mps 757 mmHg 62%
    07:00 +27°C° 0.2 mm 3 mps 758 mmHg 56%
    08:00 +29°C° 0.2 mm 3 mps 759 mmHg 50%
    09:00 +30°C° 0.2 mm 4 mps 759 mmHg 44%
    10:00 +33°C° 0 mm 4 mps 759 mmHg 39%
    11:00 +35°C° 0 mm 3 mps 758 mmHg 34%
    12:00 +36°C° 0 mm 3 mps 758 mmHg 30%
    13:00 +37°C° 0 mm 3 mps 757 mmHg 28%
    14:00 +37°C° 0 mm 2 mps 756 mmHg 27%
    15:00 +37°C° 0 mm 2 mps 755 mmHg 25%
    16:00 +37°C° 0 mm 2 mps 755 mmHg 28%
    17:00 +36°C° 0 mm 2 mps 755 mmHg 30%
    18:00 +35°C° 0 mm 2 mps 755 mmHg 32%
    19:00 +31°C° 4.8 mm 3 mps 755 mmHg 46%
    20:00 +29°C° 4.8 mm 4 mps 756 mmHg 60%
    21:00 +26°C° 4.8 mm 5 mps 757 mmHg 73%
    22:00 +26°C° 3 mm 4 mps 757 mmHg 69%
    23:00 +27°C° 3 mm 4 mps 757 mmHg 65%

    28 March, Thursday

    Time Temperature Precipitation Wind Pressure Humidity
    00:00 +27°C° 3 mm 3 mps 758 mmHg 61%
    01:00 +26°C° 0 mm 2 mps 757 mmHg 62%
    02:00 +26°C° 0 mm 2 mps 757 mmHg 63%
    03:00 +26°C° 0 mm 1 mps 756 mmHg 63%
    04:00 +25°C° 0 mm 1 mps 756 mmHg 64%
    05:00 +25°C° 0 mm 1 mps 757 mmHg 65%
    06:00 +25°C° 0 mm 1 mps 757 mmHg 66%
    07:00 +26°C° 0 mm 1 mps 758 mmHg 61%
    08:00 +28°C° 0 mm 2 mps 758 mmHg 56%
    09:00 +29°C° 0 mm 2 mps 759 mmHg 50%
    10:00 +31°C° 0 mm 2 mps 759 mmHg 46%
    11:00 +32°C° 0 mm 2 mps 758 mmHg 42%
    12:00 +34°C° 0 mm 2 mps 758 mmHg 37%
    13:00 +35°C° 0 mm 2 mps 757 mmHg 35%
    14:00 +35°C° 0 mm 1 mps 756 mmHg 33%
    15:00 +35°C° 0 mm 1 mps 755 mmHg 31%
    16:00 +34°C° 0 mm 1 mps 754 mmHg 33%
    17:00 +34°C° 0 mm 1 mps 754 mmHg 35%
    18:00 +31°C° 0 mm 0 mps 754 mmHg 38%
    19:00 +30°C° 0 mm 0 mps 755 mmHg 38%
    20:00 +29°C° 0 mm 0 mps 755 mmHg 39%
    21:00 +30°C° 0 mm 1 mps 756 mmHg 40%
    22:00 +30°C° 0 mm 1 mps 756 mmHg 41%
    23:00 +29°C° 0 mm 1 mps 756 mmHg 43%

    29 March, Friday

    Time Temperature Precipitation Wind Pressure Humidity
    00:00 +29°C° 0 mm 1 mps 755 mmHg 44%
    01:00 +28°C° 0 mm 1 mps 755 mmHg 47%
    02:00 +28°C° 0 mm 1 mps 755 mmHg 51%
    03:00 +27°C° 0 mm 1 mps 754 mmHg 54%
    04:00 +27°C° 0 mm 1 mps 754 mmHg 58%
    05:00 +27°C° 0 mm 1 mps 755 mmHg 61%
    06:00 +26°C° 0 mm 1 mps 755 mmHg 65%
    07:00 +28°C° 0 mm 2 mps 756 mmHg 59%
    08:00 +30°C° 0 mm 2 mps 756 mmHg 54%
    09:00 +33°C° 0 mm 3 mps 757 mmHg 49%
    10:00 +34°C° 0 mm 3 mps 757 mmHg 43%
    11:00 +36°C° 0 mm 2 mps 756 mmHg 37%
    12:00 +37°C° 0 mm 2 mps 756 mmHg 31%
    13:00 +37°C° 0 mm 2 mps 755 mmHg 29%
    14:00 +38°C° 0 mm 2 mps 754 mmHg 27%
    15:00 +38°C° 0 mm 2 mps 753 mmHg 25%
    16:00 +36°C° 0 mm 1 mps 753 mmHg 27%
    17:00 +36°C° 0 mm 1 mps 753 mmHg 30%
    18:00 +33°C° 0 mm 0 mps 754 mmHg 32%
    19:00 +34°C° 0 mm 1 mps 754 mmHg 35%
    20:00 +34°C° 0 mm 2 mps 755 mmHg 38%
    21:00 +33°C° 0 mm 3 mps 755 mmHg 41%
    22:00 +33°C° 0 mm 3 mps 755 mmHg 46%
    23:00 +31°C° 0 mm 3 mps 755 mmHg 51%

    30 March, Saturday

    Time Temperature Precipitation Wind Pressure Humidity
    00:00 +30°C° 0 mm 2 mps 755 mmHg 56%
    01:00 +29°C° 0 mm 2 mps 755 mmHg 58%
    02:00 +29°C° 0 mm 2 mps 755 mmHg 60%
    03:00 +28°C° 0 mm 2 mps 755 mmHg 62%
    04:00 +28°C° 0 mm 2 mps 755 mmHg 65%
    05:00 +28°C° 0 mm 2 mps 755 mmHg 68%
    06:00 +27°C° 0 mm 2 mps 756 mmHg 70%
    07:00 +29°C° 0 mm 2 mps 756 mmHg 65%
    08:00 +30°C° 0 mm 2 mps 757 mmHg 59%
    09:00 +32°C° 0 mm 2 mps 757 mmHg 53%
    10:00 +34°C° 0 mm 2 mps 757 mmHg 47%
    11:00 +36°C° 0 mm 2 mps 756 mmHg 42%
    12:00 +37°C° 0 mm 2 mps 756 mmHg 36%
    13:00 +38°C° 0 mm 2 mps 755 mmHg 34%
    14:00 +38°C° 0 mm 2 mps 754 mmHg 32%
    15:00 +39°C° 0 mm 2 mps 753 mmHg 30%
    16:00 +38°C° 0 mm 3 mps 753 mmHg 32%
    17:00 +37°C° 0 mm 3 mps 754 mmHg 34%
    18:00 +36°C° 0 mm 4 mps 754 mmHg 37%
    19:00 +35°C° 0 mm 4 mps 754 mmHg 39%
    20:00 +34°C° 0 mm 4 mps 755 mmHg 41%
    21:00 +33°C° 0 mm 4 mps 755 mmHg 43%
    22:00 +32°C° 0 mm 4 mps 755 mmHg 47%
    23:00 +32°C° 0 mm 4 mps 755 mmHg 51%
    Show more